Location: Krakow
(50.0830°N, 19.9170°E)
Time: 20:06:57
(UTC+01:00)

Altair - Pass Details

Date: 09 December 2023
Orbit: 1501 x 1682 km, 47.2° (Epoch: 03 March)

Event Time Altitude Azimuth Distance (km) Brightness Sun altitude
Rises 12:39:18 0° 287° (WNW) 4,737 10.1 15.6°
Reaches altitude 10° 12:42:36 10° 281° (W) 3,728 9.7 15.5°
Maximum altitude 12:51:09 42° 215° (SW) 2,047 9.4 15.0°
Drops below altitude 10° 12:59:31 10° 148° (SSE) 3,646 10.1 14.6°
Sets 13:02:43 0° 142° (SE) 4,623 10.5 14.4°
